STARLINK-11380, 62099

Orbit data source: Space-Track

STARLINK-11380, 62099 is a payload satellite owned by SpaceX/Seattle (US) in LEO that was launched on Mon, 25 Nov 2024 UTC via an FALCON 9 launch vehicle from the Air Force Eastern Test Range (AFETR). Payload-class satellites include a variety of spacecraft equipped with specific instruments for various scientific and technological missions. These include communications satellites like Starlink; space stations such as the ISS; scientific satellites like the Hubble; Earth observation satellites from companies like Planet Labs, Umbra, and HawkEye 360; GPS; miniature CubeSats for education and research; and military/defense satellites.

Loading next visibility...
Identifier
62099, 2024-220M
Orbit
LEO
Country
Flag of USUS
Related business
Manufacturer
SpaceX/Seattle
Mission
Operational Commercial Communications
Bus & Motor
STARLINK V2MD, Unknown motor
Mass
960 kg wet, ~910 kg dry
Launch date (UTC)
2024-11-25 (2 years ago)
Launch vehicle
FALCON 9
Launch site
Air Force Eastern Test Range (AFETR)
Object type
Payload
Rocket body
Debris
Shape & HBR
Box + 2 Pan, 18.1 m
Radar Cross Section
36.964 m², Large (>1 m²)

Expand to show TLE details & history
Last TLE update: 2 days ago

TLE from 2 days ago
0 STARLINK-11380
1 62099U 24220M   26170.33061991  .00240208  00000-0  18089-2 0  9998
2 62099  43.0019 149.9690 0003567 259.9211 100.1254 15.71008099 90948
Epoch: 2026-06-19T07:56Z
TLE epoch observation values (Epoch: 2026-06-19T07:56:05.560Z)
Latitude
-0.00003°
Longitude
123.38466°
Altitude
356.209 km
Speed
7.697 km/s
True Right ascension
09h 59m 52s
True Declination
0° 00' 00"
Sunlit
Object was in daylight at epoch
Visualization orbit readout
Latitude
Unknown
Longitude
Unknown
Altitude
Unknown
Speed
Unknown
Apparent Right ascension
Unknown
Apparent Declination
Unknown
Sunlit
N/A
Visualization observer readout
Local Sidereal Time
07:12:09
Azimuth
Unknown
Elevation
Unknown
Doppler factor
Unknown
Orbital elements
Apogee altitude
360.399 km
Perigee altitude
355.593 km
Semi-major axis
6,736.133 km
Eccentricity
0.00036
Inclination
43.0019°
RAAN
149.969°
Arg. of periapsis
259.9211°
True anomaly
100.16564°
Mean anomaly
100.1254°
Eccentric anomaly
100.14552°
Mean motion
3.92579 °/min
Orbital period
91.7 mins
BSTAR
0.0018089
Loading maneuver chart data...
Computing Atmospheric mass density...
Loading historical data...
Loading historical data...
Loading historical data...
Loading historical data...
Loading historical data...
Loading historical data...
Loading historical data...

Documentation

Showing up to 5 results
|